Date,TemperatureHighF,TemperatureAvgF,TemperatureLowF,DewpointHighF,DewpointAvgF,DewpointLowF,HumidityHigh,HumidityAvg,HumidityLow,PressureMaxIn,PressureMinIn,WindSpeedMaxMPH,WindSpeedAvgMPH,GustSpeedMaxMPH,PrecipitationSumIn
2013-3-1,63,60,56,58,51,46,91,73,57,0.00,40.00,9,6,19,0.00
2013-3-2,63,57,49,49,42,34,78,60,37,0.00,40.00,21,9,30,0.00
2013-3-3,61,53,46,47,41,36,88,67,44,0.00,40.00,16,8,23,0.00
2013-3-4,68,54,41,49,37,30,88,58,26,0.00,40.00,13,6,21,0.00
2013-3-5,79,62,50,56,52,47,97,73,33,0.00,40.00,9,4,17,0.00
2013-3-6,77,62,49,61,50,28,99,69,26,0.00,40.00,19,10,30,0.00
2013-3-7,70,56,44,55,43,35,98,63,35,0.00,40.00,11,6,17,0.00
2013-3-8,76,61,48,55,47,36,99,68,23,0.00,40.00,10,6,15,0.00
2013-3-9,75,63,50,59,53,49,98,75,43,0.00,40.00,12,6,19,0.00
2013-3-10,76,67,57,60,56,52,96,70,44,0.00,40.00,14,7,24,0.00
2013-3-11,78,69,62,62,60,55,96,74,45,0.00,40.00,13,8,19,0.00
2013-3-12,80,70,61,67,64,60,98,81,59,0.00,40.00,16,7,25,0.00
2013-3-13,75,64,54,65,53,42,97,72,34,0.00,40.00,12,8,22,0.00
2013-3-14,72,59,50,56,44,34,94,64,27,0.00,40.00,12,8,20,0.00
2013-3-15,73,59,47,56,48,42,96,70,33,0.00,40.00,10,6,21,0.00
2013-3-16,77,64,50,60,53,48,100,73,36,0.00,40.00,10,4,17,0.00
2013-3-17,77,66,56,62,57,55,99,76,49,0.00,40.00,12,6,21,0.00
2013-3-18,80,69,61,69,64,60,100,86,59,0.00,40.00,13,7,21,1.78
2013-3-19,79,71,66,69,67,65,100,87,64,0.00,40.00,13,4,29,1.72
2013-3-20,83,72,62,71,64,57,100,81,51,0.00,40.00,15,5,26,0.01
2013-3-21,72,65,59,63,52,36,99,69,27,0.00,40.00,11,7,20,0.01
2013-3-22,76,68,58,69,61,58,100,81,55,0.00,40.00,12,6,21,0.03
2013-3-23,89,77,70,74,69,64,100,78,44,0.00,40.00,13,6,23,0.05
2013-3-24,88,78,71,74,71,67,100,80,52,0.00,40.00,20,11,34,0.17
2013-3-25,76,71,59,73,60,44,100,72,37,0.00,40.00,14,8,23,0.17
2013-3-26,65,58,48,46,39,32,69,51,34,0.00,40.00,19,13,34,0.00
2013-3-27,66,54,44,41,36,32,85,55,29,0.00,40.00,13,9,22,0.00
2013-3-28,73,66,56,50,43,36,78,47,26,0.00,40.00,11,5,20,0.00
2013-3-29,76,62,50,57,50,46,97,68,36,0.00,40.00,10,6,18,0.00
2013-3-30,76,66,55,59,53,47,98,69,37,0.00,40.00,10,6,17,0.00
2013-3-31,81,69,57,66,59,-100,100,78,49,0.00,40.00,12,7,23,0.00